EW6584 Weather Reports


Display with metric or nautical units.
time (UTC)temp
F
wind
direction
speed
MPH
gust
MPH
rain 1hr
in
rain 24hr
in
rain mn
in
humidity
%
barometer
mb
20260504081535 65 21 0.0 1.0 0.00 0.00 0.00 50 1008.7
20260504044532 67 10 1.0 3.0 0.00 0.00 0.00 51 1008.6
20260504043014 68 4 1.0 3.0 0.00 0.00 0.00 50 1008.6
20260504041556 68 354 1.0 4.0 0.00 0.00 0.00 48 1008.4
20260504040044 69 339 1.0 4.0 0.00 0.00 0.00 46 1008.4
20260504034533 69 16 1.0 6.0 0.00 0.00 0.00 46 1008.3
20260504033050 69 332 1.0 8.0 0.00 0.00 0.00 46 1008.3
20260504031605 70 346 3.0 10.0 0.00 0.00 0.00 45 1008.3
20260504031505 70 354 3.0 10.0 0.00 0.00 0.00 45 1008.2
20260504030050 71 309 3.0 8.0 0.00 0.00 0.00 47 1008.3
20260504024534 72 341 3.0 9.0 0.00 0.00 0.00 45 1008.3
20260504023006 72 346 3.0 10.0 0.00 0.00 0.00 43 1008.3
20260504021527 73 319 3.0 10.0 0.00 0.00 0.00 44 1008.3
20260504020012 74 338 2.0 12.0 0.00 0.00 0.00 44 1008.3
20260504014550 75 317 4.0 12.0 0.00 0.00 0.00 43 1008.4
20260504013030 76 322 4.0 9.0 0.00 0.00 0.00 42 1008.5
20260504011519 77 335 2.0 9.0 0.00 0.00 0.00 40 1008.6
20260504010055 78 345 4.0 9.0 0.00 0.00 0.00 39 1008.7
20260504004529 78 359 4.0 10.0 0.00 0.00 0.00 39 1008.8
20260504003101 78 29 3.0 11.0 0.00 0.00 0.00 40 1008.9
20260504001543 78 359 4.0 10.0 0.00 0.00 0.00 40 1009.1
20260504000026 77 349 4.0 11.0 0.00 0.00 0.00 38 1009.3
20260503234510 78 342 3.0 10.0 0.00 0.00 0.00 38 1009.4
20260503233029 77 60 3.0 11.0 0.00 0.00 0.00 40 1009.5
20260503231534 77 350 4.0 11.0 0.00 0.00 0.00 42 1009.8
20260503230042 77 345 4.0 12.0 0.00 0.00 0.00 41 1010.0
20260503224549 77 354 3.0 10.0 0.00 0.00 0.00 40 1010.2
20260503223101 79 59 3.0 9.0 0.00 0.00 0.00 38 1010.4
20260503223002 79 11 4.0 9.0 0.00 0.00 0.00 37 1010.4
20260503221517 78 309 3.0 8.0 0.00 0.00 0.00 38 1010.5
20260503220025 78 287 1.0 8.0 0.00 0.00 0.00 39 1010.7
20260503214547 78 312 2.0 9.0 0.00 0.00 0.00 42 1010.8
20260503213103 76 35 3.0 9.0 0.00 0.00 0.00 43 1011.1
20260503213004 76 359 4.0 9.0 0.00 0.00 0.00 43 1011.1
20260503211542 76 354 2.0 10.0 0.00 0.00 0.00 43 1011.3
20260503210057 76 326 1.0 10.0 0.00 0.00 0.00 44 1011.3
20260503204510 76 55 1.0 9.0 0.00 0.00 0.00 47 1011.5
20260503203021 75 16 1.0 9.0 0.00 0.00 0.00 47 1011.7
20260503201509 74 359 4.0 12.0 0.00 0.00 0.00 48 1011.9
20260503200056 74 346 2.0 9.0 0.00 0.00 0.00 50 1012.0
20260503194510 73 97 2.0 9.0 0.00 0.00 0.00 49 1012.3
20260503193035 72 19 3.0 9.0 0.00 0.00 0.00 52 1012.5
20260503191533 72 297 2.0 8.0 0.00 0.00 0.00 53 1012.6
20260503190049 71 42 4.0 10.0 0.00 0.00 0.00 53 1012.7
20260503184558 71 330 2.0 10.0 0.00 0.00 0.00 55 1012.8
20260503183051 71 56 2.0 8.0 0.00 0.00 0.00 56 1013.1
20260503181603 71 35 3.0 5.0 0.00 0.00 0.00 56 1013.1
20260503181501 71 29 2.0 5.0 0.00 0.00 0.00 55 1013.1
20260503180013 69 61 2.0 7.0 0.00 0.00 0.00 58 1013.1
20260503174526 69 328 2.0 6.0 0.00 0.00 0.00 57 1013.3
20260503173055 69 4 2.0 9.0 0.00 0.00 0.00 58 1013.3
20260503171507 69 18 3.0 11.0 0.00 0.00 0.00 58 1013.3